EFET

Details ICAO EFET (ENF)
Name Enontekio
Region Finland
Timezone Europe/Helsinki (UTC+3.0)
Plans Departing 15
Arriving 15
Stats Elevation 1,005 ft / 306 m (AMSL)
Location 68.362586° 23.424328°
Runways 1
Magnetic Variation 10.997° E
Sunrise 2018-05-20 23:23:04 UTC / 2018-05-21 02:23:04 Local
Sunset 2018-05-21 21:25:33 UTC / 2018-05-22 00:25:33 Local
Advertisement - Login to hide

Runways

ID Width Length Bearing (true) Bearing (mag) Surface Threshold Offset Overrun Length
03 148 ft / 45 m 6,544 ft / 1,995 m 34.65° 23.65° Asphalt 0 ft / 0 m 0 ft / 0 m
21 148 ft / 45 m 6,544 ft / 1,995 m 214.68° 203.68° Asphalt 0 ft / 0 m 0 ft / 0 m

Approach Navaids

Runway Type Ident Frequency Range Bearing (true) Bearing (mag) Slope Elevation
21 Localiser ET 111.30 MHz 18 nm / 33 km 214.64° 203.65° - 1,005 ft / 306 m (AMSL)
21 Glidescope ET 111.30 MHz 10 nm / 19 km 214.66° 203.67° 3.50° 1,005 ft / 306 m (AMSL)
21 DME ET 111.30 MHz 18 nm / 33 km - - - 1,005 ft / 306 m (AMSL)

Map

Weather


0- 5 10 15 20 25 30 35+ Temperature / ° C

Clouds and Precipitation
Forecast for 2018-05-21 06:00 UTC. Updated 2 hours ago

Ground ~20,000 ft ~40,000 ft Winds

METAR

EFET 210720Z AUTO 23015KT 9999 SCT045 15/04 Q1012

TAF

Not found

Frequencies

Recorded 134.82 MHz ATIS
Tower 119.70 MHz AFIS
Tower 122.45 MHz AFIS
Warning: Do not use this data for real-world aviation or navigation. No guarantee of current accuracy is given.